[keps] orb10196.2l.amsat

Ray Hoad ray.hoad at mypbmail.com
Thu Jul 15 19:47:56 PDT 2010


SB KEPS @ AMSAT  $ORB10196.N
2Line Orbital Elements 10196.AMSAT

HR AMSAT ORBITAL ELEMENTS FOR AMATEUR SATELLITES IN NASA FORMAT
FROM WA5QGD FORT WORTH,TX July 15, 2010
Send Subscribe/unsubscribe to KEPS at http://www.amsat.org/mailman/listinfo/keps
BID: ORB10196.N

DECODE 2-LINE ELSETS WITH THE FOLLOWING KEY:
1 AAAAAU 00  0  0 BBBBB.BBBBBBBB  .CCCCCCCC  00000-0  00000-0 0  DDDZ
2 AAAAA EEE.EEEE FFF.FFFF GGGGGGG HHH.HHHH III.IIII JJ.JJJJJJJJKKKKKZ
KEY: A-CATALOGNUM B-EPOCHTIME C-DECAY D-ELSETNUM E-INCLINATION F-RAAN
G-ECCENTRICITY H-ARGPERIGEE I-MNANOM J-MNMOTION K-ORBITNUM Z-CHECKSUM

TO ALL RADIO AMATEURS BT

AO-07
1 07530U 74089B   10196.13484308 -.00000027  00000-0  10000-3 0  8275
2 07530 101.3991 210.9160 0011633 218.8843 141.1396 12.53578858631959
FO-29
1 24278U 96046B   10195.91094103  .00000089  00000-0  12428-3 0 03600
2 24278 098.5143 021.2074 0351469 051.9793 311.2534 13.52951848686851
SO-33
1 25509U 98061B   10196.49644198  .00000334  00000-0  53197-4 0  7534
2 25509 031.4328 348.4352 0354137 177.5637 182.6787 14.28317175612100
RS-22
1 27939U 03042A   10196.63565724  .00000013  00000-0  11175-4 0  3643
2 27939 097.8891 060.9102 0013138 335.0031 025.0532 14.63433340363115
VO-52
1 28650U 05017B   10195.75245715 -.00000136  00000-0 -10706-4 0  5510
2 28650 097.6905 248.1098 0026782 183.9342 176.1657 14.81770461280772
SO-67
1 35870U 09049F   10196.86938131  .00000458  00000-0  23692-4 0  9129
2 35870 097.3303 245.2447 0003544 028.5957 078.8117 15.20953739 45814
HO-68
1 36122U 09072B   10196.82719460 -.00000045  00000-0  00000 0 0  4888
2 36122 100.4670 256.9647 0007136 272.4492 087.5805 13.16281136 27981
UO-11
1 14781U 84021B   10196.69199645 -.00000199  00000-0 -19371-4 0  2889
2 14781 098.0534 248.5184 0009650 141.0382 219.1527 14.79814746416024
AO-16
1 20439U 90005D   10195.44185115  .00000012  00000-0  19850-4 0 09458
2 20439 098.3339 152.2774 0011940 084.7219 275.5325 14.31866882069280
LO-19
1 20442U 90005G   10196.41335011 -.00000047  00000-0 -20417-5 0  8554
2 20442 098.2950 158.8984 0012969 077.5768 282.6878 14.32097374 69597
AO-27
1 22825U 93061C   10196.43488605  .00000107  00000-0  58945-4 0  5789
2 22825 098.4872 143.6577 0007969 179.2717 180.8463 14.29302451876087
IO-26
1 22826U 93061D   10196.42529881 -.00000024  00000-0  73956-5 0  3148
2 22826 098.4800 144.2375 0008859 175.2578 184.8685 14.29558228876199
GO-32
1 25397U 98043D   10195.59031529 -.00000137  00000-0 -42836-4 0 02353
2 25397 098.3109 201.5309 0001559 141.3911 218.7363 14.23180425623942
NO-44
1 26931U 01043C   10196.32816006  .00000177  00000-0  10148-3 0  5080
2 26931 067.0521 131.4711 0005318 265.5141 094.5350 14.29603835458771
SO-50
1 27607U 02058C   10196.48332756  .00000085  00000-0  35106-4 0  2212
2 27607 064.5582 270.5717 0035873 063.5273 296.9471 14.71554937406548
CO-55
1 27844U 03031E   10196.54755306  .00000050  00000-0  43618-4 0  8905
2 27844 098.7090 205.1132 0010893 087.4986 272.7456 14.20717830365119
CO-57
1 27848U 03031J   10196.51085336  .00000027  00000-0  32998-4 0  8403
2 27848 098.7134 204.1761 0010696 092.3648 267.8745 14.20509525365060
AO-51
1 28375U 04025K   10195.99898986  .00000011  00000-0  15959-4 0  7249
2 28375 098.0632 187.9121 0085015 013.3961 346.9456 14.40690780317519
GENESAT1
1 29655U 06058C   10196.37512634  .00229562  28842-4  34386-3 0  1728
2 29655 040.0145 203.3329 0008593 176.0536 184.0646 16.03791059204509
CP3
1 31129U 07012N   10196.46427681  .00000168  00000-0  48872-4 0  6277
2 31129 097.9362 234.5215 0103442 145.1795 215.6238 14.52278266171966
CO-65
1 32785U 08021C   10196.32566834 -.00000138  00000-0 -10751-4 0  7327
2 32785 097.8946 260.8623 0014552 189.1706 170.9267 14.81677253119654
KKS-1
1 33493U 09002B   10196.83302258  .00000294  00000-0  44918-4 0  6645
2 33493 098.0885 316.5736 0021143 051.2273 309.0832 14.81032850 79726
SOHLA-1
1 33496U 09002E   10195.80594797 -.00000060  00000-0 -18205-5 0 01521
2 33496 098.0607 304.5260 0007619 111.8040 248.3989 14.69502307078932
STUDSAT
1 36801U 10035G   10196.78582254  .00000698  00000-0  10000-3 0   140
2 36801 098.1468 255.9808 0013548 276.1619 083.8047 14.79744784   540
NOAA-10
1 16969U 86073A   10195.70086032 -.00000068  00000-0 -98576-5 0 01333
2 16969 098.6546 224.4084 0012866 128.5891 231.6446 14.27420936239505
NOAA-11
1 19531U 88089A   10195.74826372 -.00000174  00000-0 -67244-4 0 01462
2 19531 098.7707 284.3050 0012402 070.3497 289.9031 14.14929261125032
NOAA-12
1 21263U 91032A   10195.79287884  .00000039  00000-0  35397-4 0 06347
2 21263 098.7644 208.9472 0013444 086.0244 274.2467 14.25643761996337
MET-3/5
1 21655U 91056A   10195.75687860  .00000051  00000-0  10000-3 0  8611
2 21655 082.5604 289.1574 0012168 281.6850 078.2943 13.17025381909305
MET-2/21
1 22782U 93055A   10195.62603382  .00000020  00000-0  52164-5 0 08308
2 22782 082.5458 230.6727 0021534 329.6812 030.3105 13.83645309851871
OKEAN-4
1 23317U 94066A   10195.71867467  .00000060  00000-0  44200-5 0 02863
2 23317 082.5425 328.1587 0023050 147.3691 212.8945 14.82834325850531
NOAA-14
1 23455U 94089A   10195.81364358  .00000007  00000-0  26961-4 0 01259
2 23455 098.8779 276.3651 0009599 152.2897 207.8786 14.13789740801400
NOAA-15
1 25338U 98030A   10196.45392413 -.00000106  00000-0 -26912-4 0  4470
2 25338 098.6197 182.8728 0010622 358.6020 001.5140 14.24839880632777
RESURS
1 25394U 98043A   10196.52004837  .00000012  00000-0  22772-4 0  5536
2 25394 098.3043 213.0569 0002035 111.6340 248.5066 14.24206035624385
FENGYUN1
1 25730U 99025A   10195.44758117  .00000555  00000-0  34971-3 0 00910
2 25730 098.7855 159.6918 0020929 187.6528 172.4349 14.08199602575523
OKEAN-0
1 25860U 99039A   10195.50827415  .00000027  00000-0  11544-4 0 00482
2 25860 097.8336 167.2798 0001496 047.5029 312.6303 14.73648758590922
NOAA-16
1 26536U 00055A   10195.85090302 -.00000224  00000-0 -95600-4 0 09247
2 26536 099.1697 213.9706 0009612 259.4950 100.5131 14.12566359505738
NOAA-17
1 27453U 02032A   10195.81772900  .00000184  00000-0  97776-4 0 09227
2 27453 098.4293 245.1476 0012662 059.6033 300.6396 14.24173650418632
NOAA-18
1 28654U 05018A   10195.87748392 -.00000144  00000-0 -54601-4 0 04078
2 28654 098.9506 142.0637 0014194 339.6895 020.3678 14.11370729265340
NOAA-19
1 33591U 09005A   10195.87153695 -.00000042  00000-0  47670-6 0 06045
2 33591 098.7887 137.4057 0013487 207.9398 152.1023 14.11067319073814
HUBBLE
1 20580U 90037B   10196.04063386  .00000342  00000-0  13348-4 0  6035
2 20580 028.4692 058.0248 0003494 140.7115 219.3727 15.00997412908943
ISS
1 25544U 98067A   10197.00956019  .00011172  00000-0  86359-4 0  5205
2 25544 051.6470 083.0369 0010240 083.4786 121.0410 15.72435387668001
CO-58
1 28895U 05043F   10195.67099861  .00000239  00000-0  59276-4 0 06316
2 28895 098.0120 079.2340 0017638 195.5242 164.5406 14.59910019250992
FALCON
1 30776U 07006E   10195.57015822  .00000318  00000-0  25791-4 0  8700
2 30776 035.4338 238.0411 0001050 016.2630 343.8120 15.03712909184184
MAST
1 31126U 07012K   10196.58241230  .00000066  00000-0  24990-4 0  9131
2 31126 097.9355 237.1246 0095146 137.3247 223.5410 14.53601830172187
CAPE1
1 31130U 07012P   10196.79931752 -.00000027  00000-0  42484-5 0  9344
2 31130 097.9357 234.6823 0103658 144.7714 216.0342 14.52197759171815
COMPASS
1 32787U 08021E   10196.73058185 -.00000057  00000-0 -49339-6 0  7246
2 32787 097.8935 261.0940 0015492 188.6737 171.4225 14.81906531119723
AAUSAT2
1 32788U 08021F   10195.17801300 -.00000000  00000-0  66630-5 0  7169
2 32788 097.8929 259.6953 0014652 194.4242 165.6503 14.82050835119505
DO-64
1 32789U 08021G   10195.72426691  .00000145  00000-0  24871-4 0  7346
2 32789 097.9003 260.7402 0015327 190.7514 169.3370 14.82206247119584
CO-66
1 32791U 08021J   10196.68917615  .00000512  00000-0  71606-4 0  7173
2 32791 097.8936 261.0659 0015632 187.4304 172.6691 14.81689840119674
RS-30
1 32953U 08025A   10196.54206965  .00000010  00000-0  00000 0 0  8697
2 32953 082.5000 012.0420 0019676 042.6781 317.5825 12.43006428 97260
TACSAT-3
1 35001U 09028A   10195.96097267  .00003281  00000-0  80087-4 0 03366
2 35001 040.4557 047.2480 0021169 217.1810 142.7540 15.42006528064927
PHARMSAT
1 35002U 09028B   10195.97019965  .00002738  00000-0  66526-4 0 03174
2 35002 040.4694 045.0942 0024338 220.0680 139.8340 15.42510805064943
HAWKSAT1
1 35003U 09028C   10195.95083205  .00006425  00000-0  13301-3 0 03406
2 35003 040.4604 039.1841 0022468 236.7994 123.0667 15.45813011065015
CP6
1 35004U 09028D   10195.93217990  .00007694  00000-0  15353-3 0 03447
2 35004 040.4614 038.1521 0021300 240.6310 119.2376 15.46718961065014
AEROCUB3
1 35005U 09028E   10196.85016627  .00025915  00000-0  40597-3 0  3796
2 35005 040.4671 028.6698 0019294 268.1959 091.6647 15.52864817 65204
CASTOR
1 35694U 09038F   10196.71559655  .00129543  19421-4  15002-3 0  5595
2 35694 051.6341 046.7186 0002283 273.3938 086.7006 16.08560449 55641
METEOR-M
1 35865U 09049A   10196.70515565  .00000176  00000-0  10000-3 0  4746
2 35865 098.7563 250.2981 0002014 304.0539 056.0403 14.21830899 42778
RS-38
1 35869U 09049E   10196.74393000  .00000177  00000-0  10000-3 0  4833
2 35869 098.7549 250.3710 0003907 289.3352 070.7376 14.21985067 42788
/EX




More information about the Keps mailing list